#timestamp,LO_Frequency,Hit,StdDev 
1561824015.6,286047000.9,N
1561824035.4,286047000.8,N
1561824055.2,286046999.3,N
1561824075.1,286046996.8,N
1561824076.0,286046996.8,N
1561824095.8,286046996.8,N
1561824115.7,286046998.3,N
1561824135.5,286047000.3,N
1561824155.3,286047000.4,N
1561824175.2,286047002.7,N
1561824195.0,286047000.2,N
1561824195.9,286047000.2,N
1561824215.8,286047000.2,N
1561824235.6,286047000.4,N
1561824255.4,286047002.3,N
1561824275.3,286047002.2,N
1561824295.1,286047002.7,N
1561824315.9,286047002.1,N
1561824335.7,286047002.7,N
1561824355.5,286047002.7,N
1561824375.4,286046999.7,N
1561824395.2,286046999.9,N
1561824415.0,286047000.9,N
1561824415.9,286047000.9,N
1561824435.8,286047001.1,N
1561824455.6,286047000.1,N
1561824475.5,286047002.5,N
1561824495.3,286047002.5,N
1561824515.1,286047001.9,N
1561824535.9,286047001.3,N
1561824555.7,286047001.5,N
1561824575.6,286047004.4,N
1561824595.4,286047002.4,N
1561824615.2,286047002.7,N
1561824635.1,286047002.2,N
1561824636.0,286047002.2,N
1561824655.8,286047002.8,N
1561824675.7,286047002.3,N
1561824695.5,286047001.4,N
1561824715.3,286046999.7,N
1561824735.2,286047002.1,N
1561824755.0,286047004.1,Y
1561824755.9,286047004.1,P
1561824775.8,286047001.8,N
1561824795.6,286047002.5,N
1561824815.4,286047002.1,N
1561824835.3,286047002.8,Y
1561824855.1,286046998.4,P
1561824875.9,286046999.2,N
1561824895.7,286046997.2,N
1561824915.5,286046996.5,N
1561824935.4,286046999.6,N
1561824955.2,286046997.2,N
1561824975.1,286046997.8,N
1561824976.0,286046997.8,N
1561824995.8,286046997.6,N
1561825015.6,286046998.0,N
1561825035.5,286046997.8,N
1561825055.3,286046997.7,N
1561825075.2,286046997.5,N
1561825095.9,286046997.1,N
1561825115.7,286046997.6,N
1561825135.6,286046995.3,Y
1561825155.4,286046997.5,P
1561825175.2,286046994.9,P
1561825195.1,286046997.6,N
1561825196.0,286046997.6,N
1561825215.8,286046996.6,Y
1561825235.7,286047001.7,P
1561825255.5,286047004.4,N
1561825275.3,286047001.7,N
1561825295.2,286047001.6,N
1561825315.0,286047004.3,N
1561825315.9,286047004.3,N
1561825335.8,286047001.8,N
1561825355.6,286047001.8,N
1561825375.4,286047004.3,N
1561825395.3,286047004.3,N
1561825415.1,286047004.3,N
1561825435.9,286047003.8,N
1561825455.7,286047003.3,N
1561825475.5,286047002.9,N
1561825495.4,286047003.6,N
1561825515.2,286047003.7,N
1561825535.0,286047003.6,N
1561825535.9,286047003.6,N
1561825555.8,286047007.3,Y
1561825575.6,286047005.9,P
1561825595.5,286047003.2,N
1561825615.3,286047002.5,N
1561825635.1,286047002.4,N
1561825655.9,286047002.4,N
1561825675.7,286047000.3,N
1561825695.5,286047001.0,N
1561825715.4,286047002.7,N
1561825735.2,286047002.1,N
1561825755.1,286047002.4,N
1561825756.0,286047002.4,N
1561825775.8,286047002.4,N
1561825795.6,286047000.0,N
1561825815.5,286047000.9,N
1561825835.3,286047001.0,N
1561825855.1,286047000.0,N
1561825875.9,286047000.0,N
1561825895.7,286047000.4,N
1561825915.6,286047000.6,N
1561825935.4,286046998.1,N
1561825955.2,286047001.2,N
1561825975.1,286046998.5,N
1561825976.0,286046998.5,N
1561825995.8,286046998.5,N
1561826015.7,286047000.9,N
1561826035.5,286047000.9,N
1561826055.3,286047000.9,N
1561826075.2,286047000.7,N
1561826095.0,286047000.7,N
1561826095.9,286047000.7,N
1561826115.7,286046999.8,N
1561826135.6,286047001.0,N
1561826155.2,286047002.7,N
1561826205.1,286047000.9,E
1561826215.9,286047001.2,N
1561826235.7,286046998.1,P
1561826255.6,286046998.3,N
1561826275.4,286046998.3,N
1561826295.2,286046998.3,N
1561826315.1,286046998.3,N
1561826316.0,286046998.3,N
1561826335.8,286046998.3,N
1561826355.7,286046999.4,N
1561826375.5,286046999.2,N
1561826395.3,286046999.4,N
1561826415.2,286046997.0,Y
1561826435.0,286046998.5,P
1561826435.9,286046998.5,P
1561826455.8,286047000.4,N
1561826475.6,286046998.5,N
1561826495.4,286046998.2,N
1561826515.3,286047001.2,N
1561826535.1,286046998.2,N
1561826555.8,286046998.2,N
1561826575.7,286047000.9,N
1561826595.5,286047000.7,N
1561826615.4,286046998.3,N
1561826635.2,286047000.5,N
1561826655.0,286047000.4,N
1561826655.9,286047000.4,N
1561826676.8,286047000.5,N
1561826695.8,286047000.7,N
1561826715.6,286046998.3,N
1561826735.5,286046999.9,N
1561826755.3,286047000.6,N
1561826775.1,286047001.0,N
1561826795.9,286046999.8,N
1561826815.7,286047000.4,N
1561826835.6,286047000.0,N
1561826855.4,286047000.2,N
1561826875.2,286046999.9,N
1561826895.1,286047001.2,N
1561826896.0,286047001.2,N
1561826915.8,286046998.4,N
1561826935.6,286046998.1,N
1561826955.5,286046999.4,N
1561826975.3,286046999.5,N
1561826995.2,286046999.2,N
1561827015.9,286046999.3,N
1561827035.7,286046996.8,Y
1561827055.6,286046998.9,P
1561827075.4,286046996.9,P
1561827095.3,286046999.5,N
1561827115.1,286046996.9,N
1561827116.0,286046996.9,N
1561827135.8,286046997.6,N
1561827155.7,286046999.5,N
1561827175.5,286046997.0,N
1561827195.3,286046996.6,N
1561827215.2,286046999.0,N
1561827235.0,286046998.7,N
1561827235.9,286046998.7,N
1561827255.8,286046998.5,N
1561827275.6,286047000.8,N
1561827295.4,286046998.7,N
1561827315.3,286046997.0,N
1561827335.1,286046999.0,N
1561827355.9,286046999.2,N
1561827375.7,286046996.9,N
1561827395.5,286046997.4,N
1561827415.4,286046996.5,N
1561827435.2,286046996.9,N
1561827455.1,286046999.3,N
1561827456.0,286046999.3,N
1561827475.8,286046998.9,N
1561827495.6,286046999.4,N
1561827515.5,286046998.8,N
1561827535.3,286046998.8,N
1561827555.1,286046998.4,N
1561827575.9,286047000.7,N
1561827595.7,286047000.6,N
